This is the latest recevied weather packets stored in our database for station/object KD2VWU. If no packets are shown the sender has not sent any weather packets the latest 10 day(s).
| Time | Temp. | Humidity | Pressure | Rain* | Wind** | Luminosity | Snow |
|---|---|---|---|---|---|---|---|
| 1777809841 | 6.11° C | 66% | 1008 hPa | 0 mm | - | - | - |
| 1777809539 | 6.11° C | 67% | 1008.2 hPa | 0 mm | - | - | - |
| 1777809236 | 5.56° C | 69% | 1008.1 hPa | 0 mm | - | - | - |
| 1777808935 | 5.56° C | 67% | 1008 hPa | 0 mm | - | - | - |
| 1777808630 | 5.56° C | 70% | 1007.9 hPa | 0 mm | - | - | - |
| 1777808327 | 5.56° C | 72% | 1008 hPa | 0 mm | - | - | - |
| 1777808026 | 5° C | 70% | 1008.2 hPa | 0 mm | - | - | - |
| 1777807723 | 5° C | 72% | 1007.9 hPa | 0 mm | - | - | - |
| 1777807421 | 5° C | 73% | 1008 hPa | 0 mm | - | - | - |
| 1777807116 | 5° C | 72% | 1007.9 hPa | 0 mm | - | - | - |
| 1777806814 | 5° C | 73% | 1008 hPa | 0 mm | - | - | - |
| 1777806510 | 5° C | 73% | 1007.9 hPa | 0 mm | - | - | - |
| 1777806206 | 5° C | 73% | 1007.9 hPa | 0 mm | - | - | - |
| 1777805903 | 5° C | 73% | 1007.8 hPa | 0 mm | - | - | - |
| 1777805600 | 5° C | 73% | 1007.8 hPa | 0 mm | - | - | - |
| 1777805298 | 5° C | 73% | 1007.6 hPa | 0 mm | - | - | - |
| 1777804995 | 5° C | 74% | 1007.6 hPa | 0 mm | - | - | - |
| 1777804693 | 5° C | 75% | 1007.7 hPa | 0 mm | - | - | - |
| 1777804391 | 4.44° C | 73% | 1007.7 hPa | 0 mm | - | - | - |
| 1777804088 | 4.44° C | 73% | 1007.7 hPa | 0 mm | - | - | - |
| 1777803784 | 4.44° C | 73% | 1007.6 hPa | 0 mm | - | - | - |
| 1777803479 | 4.44° C | 74% | 1007.7 hPa | 0 mm | - | - | - |
| 1777803177 | 4.44° C | 74% | 1007.7 hPa | 0 mm | - | - | - |
| 1777802874 | 5° C | 73% | 1007.3 hPa | 0 mm | - | - | - |
| 1777802572 | 5° C | 75% | 1007.5 hPa | 0 mm | - | - | - |
* Rain latest hour (hover to see other rain measurements)
** Current wind speed in m/s (hover to see current wind gust speed)